User: anonymous   Login
Location: Alexandria
(38.8050°N, 77.0470°W)
Time: 15:20:15
(UTC-04:00)
Language:

N. Korean satellite - Orbit

View from above orbital plane
View from above orbital plane
View from above satellite
View from above satellite

Ground track
Ground track

The orbit data is extracted from the following two-line orbital elements,

1 39026U 12072A   18113.55732462  .00001703  00000-0  66349-4 0  9993
2 39026  97.2128 125.7827 0040206 154.6197 205.7029 15.26570522297321
Epoch (UTC): 23 April 2018 13:22:32
Eccentricity: 0.0040206
inclination: 97.2128°
perigee height: 458 km
apogee height: 513 km
right ascension of ascending node: 125.7827°
argument of perigee: 154.6197°
revolutions per day: 15.26570522
mean anomaly at epoch: 205.7029°
orbit number at epoch: 29732

The dashed part of the orbit path shows where the satellite is in the earth's shadow,  

DLR